Location: Newark
(48.1500°N, 2.9667°W)
Time: 22:34:15
(UTC+00:00)

deb Explorer IX - Visible Passes

Search period start: 22 January 2020 00:00
Search period end: 01 February 2020 00:00
Orbit: 548 x 1101 km, 38.8° (Epoch: 22 January)

Date Brightness Start Highest point End Pass type
(mag) Time Alt. Az. Time Alt. Az. Time Alt. Az.
27 Jan ? 20:26:18 10° SSW 20:26:54 12° SSW 20:26:54 12° SSW visible
28 Jan ? 20:03:57 10° SSW 20:06:03 17° S 20:06:03 17° S visible
29 Jan ? 19:41:36 10° SSW 19:45:08 20° SSE 19:45:08 20° SSE visible
29 Jan ? 21:26:29 10° SW 21:26:30 10° SW 21:26:30 10° SW visible
30 Jan ? 19:19:17 10° SSW 19:23:50 21° SSE 19:24:09 21° SSE visible
30 Jan ? 21:04:06 10° SW 21:05:31 17° SW 21:05:31 17° SW visible
31 Jan ? 18:56:58 10° SSW 19:01:23 21° SSE 19:03:08 18° SE visible
31 Jan ? 20:41:45 10° SW 20:44:29 24° SW 20:44:29 24° SW visible
